Flag for U.S.A. Weather past 2 weeks in Coeur d'Alene, Idaho, U.S.A.

Now
93 °F

Sunny.


Feels Like: 89 °F
Forecast: 67 / 93 °F
Wind: 7 mph from Northeast

Location: Coeur d'Alene Weather Reporting System

Current Time: Aug 1, 2014 at 6:19:03 PM

Latest Report: Aug 1, 2014 at 5:55 PM


Visibility: 10 mi

Pressure: 29.95 "Hg

Humidity: 17%

Dew point: 43 °F

Location of Coeur d'AleneLocation

Historic Weather in Coeur d'Alene — Graph

°F

Coeur d'Alene temperature yesterday

Maximum temperature yesterday: 99 °F (at 3:55 PM)
Minimum temperature yesterday: 57 °F (at 4:35 AM)
Average temperature yesterday: 78 °F

Past Weeks' High & Low Weather Summary

 TemperatureHumidityPressure
High99 °F (Jul 29, 2:35 PM)94% (Jul 24, 1:55 AM)30.20 "Hg (Jul 24, 1:55 AM)
Low48 °F (Jul 26, 4:35 AM)11% (Jul 21, 5:55 AM)29.74 "Hg (Jul 17, 7:55 PM)
Average71 °F48%30.01 "Hg
* Reported Jul 17 5:15 PM — Aug 1 5:15 PM, Coeur d'Alene, Weather by CustomWeather, © 2014

Note: Actual official high and low records may vary slightly from our data, if they occured in-between our weather recording intervals... More about our weather records

Advertising

Coeur d'Alene weather history for previous 24 hours

 ConditionsComfort  
Time TempWeatherWind HumidityBarometerVisibility
5:15 PM
Aug 1
93 °FSunny.8 mph17%29.96 "Hg10 mi
4:55 PM93 °FSunny.9 mph17%29.96 "Hg10 mi
4:35 PM93 °FSunny.7 mph17%29.96 "Hg10 mi
4:15 PM93 °FSunny.5 mph17%29.96 "Hg10 mi
3:55 PM95 °FSunny.3 mph16%29.97 "Hg9 mi
3:35 PM93 °FSunny.No wind17%29.98 "Hg10 mi
3:15 PM93 °FSunny.3 mph19%29.98 "Hg10 mi
2:55 PM93 °FSunny.No wind19%30.00 "Hg10 mi
2:35 PM93 °FSunny.No wind19%29.98 "Hg7 mi
1:55 PM91 °FSunny.3 mph20%30.02 "Hg10 mi
1:35 PM91 °FSunny.7 mph21%30.03 "Hg10 mi
1:15 PM90 °FPassing clouds.7 mph22%30.03 "Hg10 mi
12:55 PM90 °FPassing clouds.8 mph22%30.03 "Hg10 mi
12:35 PM90 °FPassing clouds.9 mph24%30.04 "Hg10 mi
12:15 PM88 °FSunny.8 mph29%30.04 "Hg10 mi
11:55 AM84 °FSunny.9 mph33%30.05 "Hg10 mi
11:35 AM84 °FSunny.9 mph33%30.06 "Hg10 mi
11:15 AM82 °FSunny.8 mph32%30.07 "Hg10 mi
10:55 AM81 °FSunny.8 mph34%30.06 "Hg10 mi
10:35 AM81 °FSunny.10 mph34%30.06 "Hg10 mi
10:15 AM81 °FSunny.13 mph37%30.06 "Hg10 mi
9:55 AM79 °FSunny.14 mph39%30.06 "Hg10 mi
9:35 AM79 °FSunny.13 mph42%30.06 "Hg10 mi
9:15 AM73 °FSunny.14 mph47%30.07 "Hg10 mi
8:55 AM73 °FSunny.13 mph47%30.06 "Hg10 mi
8:35 AM72 °FSunny.10 mph50%30.06 "Hg10 mi
8:15 AM72 °FSunny.8 mph47%30.06 "Hg10 mi
7:55 AM70 °FSunny.9 mph53%30.06 "Hg10 mi
7:35 AM68 °FSunny.7 mph53%30.06 "Hg10 mi
7:15 AM66 °FSunny.7 mph60%30.06 "Hg10 mi
6:55 AM64 °FSunny.10 mph60%30.06 "Hg10 mi
6:35 AM63 °FSunny.5 mph59%30.06 "Hg10 mi
6:15 AM61 °FClear.6 mph55%30.05 "Hg10 mi
5:55 AM61 °FClear.6 mph59%30.05 "Hg10 mi
5:35 AM63 °FClear.8 mph56%30.04 "Hg10 mi
5:15 AM57 °FClear.6 mph67%30.04 "Hg10 mi
4:55 AM57 °FClear.6 mph67%30.04 "Hg10 mi
4:35 AM55 °FClear.5 mph72%30.04 "Hg10 mi
4:15 AM57 °FClear.7 mph63%30.03 "Hg10 mi
3:55 AM61 °FClear.7 mph59%30.03 "Hg10 mi
3:35 AM63 °FClear.7 mph56%30.03 "Hg10 mi
3:15 AM63 °FClear.5 mph56%30.03 "Hg10 mi
2:55 AM61 °FClear.8 mph59%30.03 "Hg10 mi
2:35 AM63 °FClear.7 mph56%30.03 "Hg10 mi
1:55 AM66 °FClear.5 mph52%30.03 "Hg10 mi
1:35 AM66 °FClear.No wind52%30.03 "Hg10 mi
1:15 AM66 °FClear.5 mph52%30.02 "Hg10 mi
12:55 AM68 °FClear.3 mph49%30.03 "Hg10 mi
12:35 AM68 °FClear.5 mph46%30.02 "Hg10 mi
11:55 PM
Jul 31
70 °FClear.No wind46%30.02 "Hg10 mi
11:35 PM70 °FClear.6 mph50%30.02 "Hg10 mi
11:15 PM70 °FClear.8 mph46%30.01 "Hg10 mi
10:55 PM72 °FClear.7 mph44%30.01 "Hg10 mi
10:35 PM73 °FClear.No wind44%30.01 "Hg10 mi
10:15 PM73 °FClear.No wind36%30.00 "Hg10 mi
9:55 PM75 °FClear.3 mph34%29.99 "Hg10 mi
9:15 PM79 °FSunny.No wind30%29.97 "Hg10 mi
8:55 PM75 °FSunny.3 mph34%29.99 "Hg10 mi
8:35 PM81 °FSunny.7 mph26%29.98 "Hg10 mi
8:15 PM79 °FSunny.7 mph32%29.98 "Hg10 mi
7:55 PM82 °FSunny.No wind32%29.95 "Hg10 mi
7:35 PM86 °FSunny.No wind27%29.94 "Hg10 mi
7:15 PM86 °FSunny.No wind25%29.94 "Hg10 mi
6:55 PM88 °FSunny.No wind25%29.94 "Hg10 mi
6:35 PM90 °FSunny.No wind24%29.94 "Hg10 mi
6:15 PM90 °FSunny.6 mph20%29.96 "Hg10 mi
Weather by CustomWeather, © 2014

See weather overviewHow to use our weather pages